world map with MPL marked

MPL - Airport

This information may not be accurate or current and is not valid for navigation or flight planning. No warranty of fitness for any purpose is made or implied.

flag of France

Donate via PayPal

Additional information is available on the NEW Great Circle Mapper

Location
City:  Montpellier Méditerranée, France
Name:Frejorgues
ICAO / IATA:LFMT / MPL

Details
Type:Airport (Aerodrome, Airfield)
Use:Public/Civil
Latitude:43°35'00"N (43.583333)
Longitude:3°57'41"E (3.961389)
Elevation:17 ft (5 m)
Runways:2
Longest:8530 × 164 ft (2600 × 50 m)

Time
Timezone:UTC+1 (DST+4)
Local Time:

Weather
METAR:LFMT  031600Z 18007KT CAVOK 14/08 Q1023 NOSIG
TAF:LFMT  031100Z 0312/0412 16005KT 9999 NSC BECMG 0319/0322 30010KT BECMG 0410/0412 34015G25KT

Related Locations
Nearby:
Farthest:CHT: 12409 mi / 19970 km
Waitangi [Tuuta], Chatham Islands, NZ

Find:

   beyond  
but within

Other Information
Maps:
Links:
Sources:

  


 


Great Circle Mapper   Great Circle Mapper
Great Circle Mapper FAQ   Great Circle Mapper FAQ
  Karl's Home Page
KLS²   KLS² Home
   GC on Facebook
Airlines of the World   Airlines of the World
Donate via PayPal


Copyright © 2004-2015, Karl L. Swartz. All rights reserved.
All trademarks mentioned herein belong to their respective owners.

Please see credits for attribution and copyright information.

Karl Swartz <karl@kls2.com>
  Powered by FreeBSD
Valid HTML 4.01!
Labeled with ICRA
hCard Microformat
Geo Microformat